User: anonymous   Login
Location: Rio Negrinho
(26.2394°S, 49.4999°W)
Time: 13:47:40
(UTC+00:00)
Language:

ATLAS 3B CENTAUR R/B - Orbit

View from above orbital plane
View from above orbital plane
View from above satellite
View from above satellite

Ground track
Ground track

The orbit data is extracted from the following two-line orbital elements,

1 28118U 03057B   20219.19389314  .00071123 -11846-5  72838-3 0  9998
2 28118  28.0931 272.2051 2372216 163.1775 206.3444 10.78963051405380
Epoch (UTC): 06 August 2020 04:39:12
Eccentricity: 0.2372216
inclination: 28.0931°
perigee height: 220 km
apogee height: 4325 km
right ascension of ascending node: 272.2051°
argument of perigee: 163.1775°
revolutions per day: 10.78963051
mean anomaly at epoch: 206.3444°
orbit number at epoch: 40538

The dashed part of the orbit path shows where the satellite is in the earth's shadow,  

DLR